[[{"header":{"parameterUnit":"m.s-1","parameterCategory":2,"la1":30.2991,"la2":30.254,"lo1":-89.0895,"lo2":-89.0444,"dy":0.0017,"dx":0.0017,"nx":28,"ny":28,"refTime":"2023-11-12T09:00:00:Z","depth":"0","parameterNumber":2,"parameterNumberName":"U-component_of_CURRENTS"},"data":[0,0,0,0,0,0,0,0,0,0,0,0,0,0,0,0,0,0,0,0,0,0,0,0,0,0,0,0,0,0,0,0,0,0,0,0,0,0,0,0,0,0,0,0,0,0,0,0,0,0,0,0,0,0,0,0,0,0,0.1822,0.1822,0,0.1852,0.1852,0.1852,0.1857,0.1857,0.1857,0.1857,0.1853,0.1853,0.1853,0,0,0,0,0,0,0,0,0,0,0,0,0,0.1753,0.1754,0.1822,0.1822,0.1823,0.1852,0.1852,0.1852,0.1857,0.1857,0.1857,0.1857,0.1853,0.1853,0.1853,0,0,0,0,0,0,0,0,0,0,0,0,0,0.178,0.1755,0.1822,0.1831,0.1832,0.1852,0.1852,0.1852,0.1857,0.1857,0.1857,0.1857,0.1853,0.1853,0.1853,0.1853,0,0,0.1852,0.1852,0,0,0,0,0,0,0,0,0.1779,0.1783,0.1829,0.183,0.1832,0.1853,0.1827,0.1852,0.1857,0.1844,0.1857,0.1857,0.1852,0.1852,0.1854,0.1852,0.1852,0.1852,0.1852,0.1852,0.1852,0,0,0,0,0,0,0,0.1777,0.1781,0.1831,0.183,0.1831,0.1829,0.1832,0.1831,0.1845,0.1845,0.1847,0.1854,0.1852,0.1854,0.1854,0.1852,0.1852,0.1852,0.1852,0.1852,0.1884,0.1885,0,0,0,0,0,0,0.178,0.178,0.183,0.1832,0.1808,0.183,0.1834,0.1844,0.1846,0.1847,0.1855,0.1855,0.1854,0.1854,0.1854,0.1885,0.1852,0.1852,0.1852,0.1883,0.1884,0.1885,0,0,0,0,0,0,0.1778,0.1784,0.1829,0.1809,0.1814,0.1832,0.1843,0.1845,0.1852,0.1854,0.1854,0.186,0.1854,0.1854,0.1864,0.1884,0.1852,0.1852,0.1882,0.1883,0.1885,0.1928,0,0,0,0,0,0,0.1776,0.1784,0.179,0.1809,0.1816,0.1849,0.1843,0.1845,0.1858,0.1858,0.1858,0.1858,0.1854,0.1864,0.1863,0.1883,0.1852,0.1881,0.1883,0.1884,0.1926,0.1931,0.1936,0,0,0,0,0,0.1774,0.1784,0.179,0.1796,0.1825,0.185,0.1854,0.1863,0.1858,0.1867,0.1868,0.1858,0.1875,0.1864,0.1864,0.1884,0.188,0.1882,0.1884,0.1924,0.193,0.1935,0,0,0,0,0,0,0.1754,0.1787,0.1793,0.1812,0.1834,0.1852,0.1862,0.1866,0.1873,0.1872,0.1866,0.1867,0.1885,0.1877,0.1866,0.1899,0.1877,0.1879,0.1907,0.1913,0.1918,0.1921,0.1852,0,0,0,0,0,0.1754,0.1773,0.1801,0.1816,0.1829,0.1845,0.1855,0.1864,0.1875,0.1878,0.1879,0.1882,0.1892,0.1896,0.1901,0.1915,0.1926,0.1929,0.1934,0.1938,0.194,0.1976,0.1985,0.1892,0.1892,0.1892,0,0,0.1749,0.1771,0.178,0.1814,0.183,0.1853,0.1851,0.1872,0.189,0.1876,0.1894,0.1897,0.1899,0.1921,0.1928,0.1917,0.1973,0.194,0.1944,0.1944,0.1979,0.1988,0.1996,0.1893,0.1893,0.1893,0,0,0.1753,0.1771,0.179,0.1812,0.1845,0.1859,0.1867,0.1891,0.1901,0.192,0.1919,0.1935,0.1942,0.1956,0.1961,0.1994,0.1998,0.1996,0.2024,0.2059,0.2067,0.2074,0.2115,0.2126,0.1999,0.1999,0.1999,0,0.1743,0.1776,0.1798,0.1825,0.1845,0.1864,0.1887,0.1904,0.1926,0.1942,0.1931,0.1962,0.1961,0.1998,0.201,0.2006,0.2028,0.2001,0.2066,0.2073,0.208,0.212,0.2131,0.2002,0.2001,0.2001,0.2001,0,0.1766,0.1792,0.1806,0.1848,0.1871,0.1896,0.1926,0.1947,0.1957,0.1975,0.201,0.2013,0.2036,0.204,0.2033,0.2083,0.2085,0.2069,0.2052,0.2092,0.2132,0.2142,0.2005,0.2004,0.2003,0.2003,0,0,0.1739,0.1809,0.1813,0.1838,0.1886,0.1907,0.1944,0.1987,0.2017,0.2035,0.2072,0.2091,0.2098,0.2105,0.2106,0.213,0.2197,0.2121,0.2121,0.2163,0.2287,0.2323,0.2338,0.2194,0.2196,0.2197,0.2302,0,0.1748,0.1801,0.1834,0.1878,0.1907,0.1942,0.1977,0.2017,0.2048,0.2089,0.2108,0.2141,0.2124,0.2139,0.2164,0.219,0.2224,0.2171,0.224,0.2242,0.2271,0.2351,0.2344,0.2439,0.2312,0.2314,0.2315,0,0.1756,0.1795,0.1841,0.1903,0.1919,0.1945,0.2008,0.2042,0.2107,0.2135,0.2177,0.2195,0.2246,0.2213,0.2291,0.226,0.2279,0.2291,0.2295,0.2319,0.2298,0.2376,0.2463,0.2445,0.2331,0.233,0.2329,0,0.1727,0.1794,0.1831,0.1853,0.1926,0.195,0.1986,0.2053,0.2094,0.2168,0.2208,0.2265,0.2304,0.2335,0.2376,0.2339,0.2459,0.241,0.2462,0.2464,0.2467,0.2467,0.2545,0.2463,0.2463,0.2463,0.2462,0,0.1723,0.1749,0.182,0.1841,0.1881,0.1937,0.1986,0.2034,0.2114,0.2175,0.2228,0.2295,0.2336,0.2408,0.2418,0.25,0.2504,0.2493,0.2504,0.2484,0.2485,0.2473,0.2453,0.2466,0.2466,0.2465,0.2464,0,0.168,0.1731,0.1772,0.1848,0.1867,0.1892,0.1975,0.2017,0.2102,0.2186,0.2216,0.2339,0.2449,0.2498,0.2572,0.2573,0.259,0.2647,0.263,0.2637,0.2646,0.2629,0.2599,0.2499,0.272,0.2721,0.2723,0,0.1661,0.1681,0.1755,0.1778,0.1809,0.1859,0.1894,0.1989,0.2044,0.2218,0.2258,0.2407,0.2506,0.2656,0.2712,0.2778,0.2669,0.2782,0.2701,0.2678,0.2667,0.2526,0.243,0.2726,0.2727,0.2728,0.2729,0,0.1621,0.1647,0.1683,0.1731,0.1769,0.1814,0.1878,0.1919,0.2048,0.214,0.229,0.2393,0.2597,0.2701,0.2814,0.2836,0.2698,0.2806,0.2786,0.2698,0.2545,0.2443,0.2625,0.2739,0.2738,0.2737,0.2737,0.2736,0.1576,0.1588,0.1639,0.1675,0.1719,0.1759,0.1772,0.1866,0.1952,0.2087,0.2248,0.2403,0.2651,0.2831,0.2838,0.2897,0.2779,0.2842,0.2833,0.2696,0.2573,0.2789,0.2907,0.2907,0.2907,0.2907,0.2907,0,0.1515,0.1546,0.1583,0.1622,0.1638,0.169,0.1752,0.1764,0.1836,0.2035,0.217,0.2481,0.2654,0.2817,0.3009,0.2955,0.2753,0.2883,0.2684,0.2587,0.2816,0.2792,0.2886,0.2886,0.2886,0.2886,0.2886,0.2886,0.1487,0.1498,0.1523,0.153,0.1556,0.1548,0.1567,0.1612,0.1734,0.1932,0.2136,0.2328,0.2728,0.3107,0.3163,0.3055,0.2776,0.2712,0.26,0.281,0.2803,0.2797,0.277,0.2858,0.2858,0.2267,0.2264,0.2261]},{"header":{"parameterUnit":"m.s-1","parameterCategory":2,"la1":30.2991,"la2":30.254,"lo1":-89.0895,"lo2":-89.0444,"dy":0.0017,"dx":0.0017,"nx":28,"ny":28,"refTime":"2023-11-12T09:00:00:Z","depth":"0","parameterNumber":3,"parameterNumberName":"V-component_of_CURRENTS"},"data":[0,0,0,0,0,0,0,0,0,0,0,0,0,0,0,0,0,0,0,0,0,0,0,0,0,0,0,0,0,0,0,0,0,0,0,0,0,0,0,0,0,0,0,0,0,0,0,0,0,0,0,0,0,0,0,0,0,0,-0.045,-0.0451,0,-0.0508,-0.0509,-0.0509,-0.0545,-0.0546,-0.0546,-0.0546,-0.0625,-0.0627,-0.0629,0,0,0,0,0,0,0,0,0,0,0,0,0,-0.0406,-0.0407,-0.045,-0.0451,-0.0452,-0.0508,-0.0509,-0.0509,-0.0545,-0.0546,-0.0546,-0.0546,-0.0624,-0.0627,-0.0629,0,0,0,0,0,0,0,0,0,0,0,0,0,-0.0441,-0.0407,-0.045,-0.0477,-0.0479,-0.0508,-0.0509,-0.051,-0.0545,-0.0546,-0.0546,-0.0546,-0.0624,-0.0626,-0.0629,-0.0641,0,0,-0.0638,-0.0639,0,0,0,0,0,0,0,0,-0.0439,-0.0442,-0.0472,-0.0475,-0.0478,-0.052,-0.0522,-0.0554,-0.0545,-0.052,-0.0546,-0.0546,-0.0592,-0.0597,-0.0607,-0.0644,-0.0648,-0.0638,-0.064,-0.0641,-0.0642,0,0,0,0,0,0,0,-0.0436,-0.044,-0.0473,-0.0473,-0.0476,-0.0497,-0.0502,-0.0528,-0.0554,-0.0522,-0.0525,-0.0532,-0.0593,-0.0604,-0.0609,-0.0649,-0.0638,-0.0641,-0.0642,-0.0643,-0.0704,-0.0703,0,0,0,0,0,0,-0.0427,-0.0438,-0.0471,-0.0475,-0.0459,-0.0498,-0.0503,-0.0506,-0.0553,-0.056,-0.0531,-0.0533,-0.0599,-0.0606,-0.0612,-0.0624,-0.0641,-0.0644,-0.0645,-0.0704,-0.0704,-0.0703,0,0,0,0,0,0,-0.0426,-0.0429,-0.0469,-0.0458,-0.0464,-0.0498,-0.0501,-0.0507,-0.0518,-0.056,-0.0567,-0.0536,-0.0599,-0.0608,-0.0635,-0.0628,-0.0645,-0.0648,-0.0704,-0.0704,-0.0703,-0.0652,0,0,0,0,0,0,-0.0424,-0.0428,-0.0426,-0.0457,-0.0465,-0.0482,-0.0501,-0.0508,-0.0522,-0.0525,-0.0567,-0.0574,-0.06,-0.0631,-0.0638,-0.0632,-0.065,-0.0704,-0.0704,-0.0704,-0.0654,-0.065,-0.0647,0,0,0,0,0,-0.0422,-0.0416,-0.0426,-0.043,-0.0461,-0.0482,-0.0487,-0.0513,-0.0522,-0.0524,-0.0554,-0.0573,-0.0634,-0.0633,-0.0642,-0.0636,-0.0704,-0.0704,-0.0704,-0.0655,-0.0651,-0.0647,0,0,0,0,0,0,-0.0395,-0.042,-0.0431,-0.0433,-0.0455,-0.0488,-0.0492,-0.0509,-0.0534,-0.0536,-0.0575,-0.0584,-0.0606,-0.0629,-0.0626,-0.0653,-0.0671,-0.0673,-0.0632,-0.0628,-0.0624,-0.0611,-0.0652,0,0,0,0,0,-0.0387,-0.039,-0.0419,-0.042,-0.0429,-0.0459,-0.047,-0.0487,-0.0513,-0.0524,-0.0554,-0.0584,-0.0612,-0.0625,-0.0654,-0.0668,-0.0693,-0.067,-0.0666,-0.0663,-0.0659,-0.0695,-0.0694,-0.0703,-0.0703,-0.0703,0,0,-0.0377,-0.0391,-0.0393,-0.0415,-0.0432,-0.0439,-0.0466,-0.0478,-0.0483,-0.0529,-0.0543,-0.0576,-0.0614,-0.0632,-0.0642,-0.0649,-0.0673,-0.0663,-0.0659,-0.0657,-0.0694,-0.0694,-0.0693,-0.0702,-0.0702,-0.0702,0,0,-0.0357,-0.037,-0.0366,-0.038,-0.0402,-0.0421,-0.0422,-0.0453,-0.0466,-0.0485,-0.0519,-0.0546,-0.0585,-0.0611,-0.0629,-0.0624,-0.0656,-0.063,-0.0599,-0.0634,-0.0634,-0.0633,-0.0657,-0.0659,-0.0625,-0.0625,-0.0625,0,-0.0342,-0.0343,-0.0368,-0.0368,-0.0374,-0.0409,-0.0405,-0.0424,-0.0459,-0.0469,-0.0482,-0.0542,-0.0575,-0.0599,-0.0596,-0.0615,-0.0636,-0.061,-0.0629,-0.0629,-0.063,-0.0655,-0.0658,-0.0622,-0.0622,-0.0623,-0.0623,0,-0.0323,-0.0323,-0.032,-0.0331,-0.0341,-0.0343,-0.037,-0.038,-0.04,-0.0423,-0.0451,-0.0498,-0.0533,-0.0546,-0.057,-0.0588,-0.0601,-0.0622,-0.0637,-0.0626,-0.0653,-0.0657,-0.0618,-0.0619,-0.062,-0.0621,0,0,-0.0288,-0.0303,-0.0301,-0.0297,-0.032,-0.0323,-0.033,-0.0348,-0.0347,-0.0387,-0.0393,-0.0445,-0.0473,-0.0495,-0.053,-0.0556,-0.058,-0.0584,-0.0587,-0.0601,-0.0648,-0.0643,-0.0648,-0.0603,-0.0604,-0.0605,-0.0661,0,-0.0264,-0.0252,-0.0268,-0.0253,-0.0248,-0.0276,-0.0276,-0.0296,-0.032,-0.0335,-0.0387,-0.0408,-0.0452,-0.0463,-0.05,-0.0561,-0.059,-0.0562,-0.0661,-0.0664,-0.0657,-0.0652,-0.0656,-0.0706,-0.0666,-0.0667,-0.0667,0,-0.0238,-0.0233,-0.0214,-0.021,-0.0209,-0.0205,-0.0208,-0.0214,-0.0249,-0.0268,-0.0306,-0.0347,-0.0395,-0.043,-0.053,-0.0509,-0.0573,-0.062,-0.0624,-0.0641,-0.0667,-0.0713,-0.0716,-0.0893,-0.0674,-0.0674,-0.0673,0,-0.0199,-0.0193,-0.0173,-0.0173,-0.0176,-0.0168,-0.0171,-0.0195,-0.0185,-0.0226,-0.0223,-0.03,-0.0321,-0.0418,-0.0515,-0.0526,-0.0618,-0.0653,-0.0709,-0.0709,-0.0742,-0.0744,-0.0923,-0.0724,-0.0724,-0.0723,-0.0723,0,-0.0166,-0.0148,-0.0151,-0.0139,-0.0107,-0.0127,-0.0097,-0.0115,-0.0123,-0.0096,-0.0184,-0.0173,-0.0317,-0.0384,-0.0494,-0.0604,-0.0608,-0.07,-0.0724,-0.0723,-0.0722,-0.0902,-0.1006,-0.0725,-0.0725,-0.0725,-0.0724,0,-0.0125,-0.013,-0.0103,-0.0096,-0.0087,-0.0065,-0.0039,-0.0017,-0.0038,-0.0005,-0.0009,-0.0077,-0.0162,-0.0304,-0.045,-0.056,-0.0785,-0.0716,-0.0696,-0.0716,-0.0939,-0.1039,-0.1257,-0.134,-0.08,-0.08,-0.08,0,-0.0102,-0.0086,-0.0062,-0.0036,-0.0029,0.0003,0.0032,0.0026,0.0059,0.007,0.0099,0.003,0.0008,-0.0213,-0.0425,-0.0621,-0.0789,-0.0758,-0.0788,-0.0951,-0.1081,-0.1171,-0.1232,-0.0814,-0.0814,-0.0814,-0.0815,0,-0.0055,-0.0049,-0.0023,0.0026,0.0063,0.0109,0.0151,0.0196,0.0209,0.0243,0.029,0.0276,0.0071,-0.0123,-0.0402,-0.0553,-0.0908,-0.0768,-0.0956,-0.112,-0.1214,-0.1303,-0.0772,-0.0817,-0.0817,-0.0816,-0.0816,-0.0816,-0.0011,0.0015,0.0049,0.01,0.0146,0.0214,0.0266,0.0331,0.0407,0.0485,0.0454,0.0469,0.0146,-0.0233,-0.0467,-0.092,-0.0931,-0.1053,-0.1163,-0.124,-0.1323,-0.0783,-0.084,-0.0839,-0.0839,-0.0839,-0.0839,0,0.0048,0.0073,0.0121,0.0183,0.0245,0.0256,0.0351,0.0416,0.053,0.0609,0.0659,0.0508,0.011,-0.0311,-0.0903,-0.1238,-0.1398,-0.1443,-0.1596,-0.1639,-0.1174,-0.1176,-0.1285,-0.1285,-0.1285,-0.1284,-0.1284,-0.1284,0.0081,0.0137,0.0156,0.0261,0.0309,0.04,0.046,0.0565,0.0643,0.0744,0.0766,0.0742,0.0409,-0.0692,-0.1449,-0.1637,-0.1946,-0.2011,-0.2142,-0.1849,-0.1821,-0.1795,-0.1822,-0.2065,-0.2066,-0.2566,-0.2571,-0.2575]}],[{"header":{"parameterUnit":"m.s-1","parameterCategory":2,"la1":30.2991,"la2":30.254,"lo1":-89.0895,"lo2":-89.0444,"dy":0.0017,"dx":0.0017,"nx":28,"ny":28,"refTime":"2023-11-12T09:00:00:Z","depth":"2","parameterNumber":2,"parameterNumberName":"U-component_of_CURRENTS"},"data":[0,0,0,0,0,0,0,0,0,0,0,0,0,0,0,0,0,0,0,0,0,0,0,0,0,0,0,0,0,0,0,0,0,0,0,0,0,0,0,0,0,0,0,0,0,0,0,0,0,0,0,0,0,0,0,0,0,0,0.1859,0.186,0,0.1889,0.1889,0.1889,0.1894,0.1894,0.1894,0.1894,0.1892,0.1892,0.1892,0,0,0,0,0,0,0,0,0,0,0,0,0,0.1792,0.1793,0.1859,0.186,0.186,0.1889,0.1889,0.1889,0.1894,0.1894,0.1894,0.1894,0.1892,0.1892,0.1892,0,0,0,0,0,0,0,0,0,0,0,0,0,0.1819,0.1793,0.1859,0.1868,0.1869,0.1889,0.1889,0.1889,0.1894,0.1894,0.1894,0.1894,0.1892,0.1892,0.1892,0.1893,0,0,0.1892,0.1892,0,0,0,0,0,0,0,0,0.1817,0.1821,0.1866,0.1867,0.1869,0.189,0.1865,0.189,0.1894,0.1881,0.1894,0.1893,0.189,0.189,0.1893,0.1893,0.1893,0.1892,0.1892,0.1892,0.1892,0,0,0,0,0,0,0,0.1816,0.182,0.1868,0.1867,0.1868,0.1866,0.187,0.187,0.1883,0.1883,0.1884,0.1891,0.189,0.1893,0.1893,0.1892,0.1892,0.1892,0.1892,0.1892,0.1926,0.1927,0,0,0,0,0,0,0.1818,0.1818,0.1867,0.1869,0.1846,0.1867,0.1871,0.1881,0.1884,0.1885,0.1891,0.1891,0.1893,0.1893,0.1893,0.1925,0.1892,0.1892,0.1892,0.1926,0.1927,0.1928,0,0,0,0,0,0,0.1817,0.1822,0.1866,0.1846,0.1852,0.1869,0.188,0.1882,0.1889,0.1891,0.1891,0.1897,0.1893,0.1893,0.1903,0.1924,0.1892,0.1892,0.1924,0.1926,0.1927,0.1971,0,0,0,0,0,0,0.1815,0.1822,0.1828,0.1847,0.1853,0.1886,0.188,0.1882,0.1895,0.1895,0.1896,0.1896,0.1893,0.1903,0.1903,0.1923,0.1892,0.1923,0.1925,0.1927,0.1968,0.1973,0.1978,0,0,0,0,0,0.1812,0.1823,0.1828,0.1834,0.1862,0.1887,0.1891,0.19,0.1895,0.1904,0.1906,0.1896,0.1915,0.1904,0.1904,0.1924,0.1922,0.1925,0.1927,0.1966,0.1972,0.1978,0,0,0,0,0,0,0.1793,0.1825,0.1831,0.185,0.1871,0.1889,0.19,0.1903,0.1911,0.191,0.1905,0.1905,0.1924,0.1917,0.1905,0.194,0.1918,0.192,0.1948,0.1954,0.1959,0.1962,0.1892,0,0,0,0,0,0.1794,0.1812,0.1839,0.1854,0.1867,0.1883,0.1893,0.1901,0.1912,0.1916,0.1917,0.1921,0.1932,0.1937,0.1942,0.1957,0.1968,0.1971,0.1976,0.198,0.1984,0.2019,0.2028,0.1935,0.1935,0.1935,0,0,0.1789,0.1811,0.1819,0.1852,0.1868,0.1891,0.1888,0.191,0.1928,0.1914,0.1933,0.1937,0.194,0.1962,0.1969,0.1958,0.2016,0.1983,0.1987,0.1987,0.2022,0.2031,0.2039,0.1936,0.1936,0.1935,0,0,0.1794,0.1811,0.183,0.1852,0.1884,0.1898,0.1906,0.1929,0.194,0.1958,0.1958,0.1975,0.1983,0.1997,0.2003,0.2037,0.204,0.2039,0.2067,0.2102,0.211,0.2117,0.2157,0.2167,0.2042,0.2042,0.2042,0,0.1784,0.1816,0.1838,0.1865,0.1885,0.1903,0.1927,0.1943,0.1965,0.1981,0.197,0.2003,0.2002,0.204,0.2053,0.2049,0.207,0.2045,0.2109,0.2116,0.2123,0.2161,0.2172,0.2044,0.2044,0.2044,0.2044,0,0.1808,0.1833,0.1848,0.1889,0.1912,0.1937,0.1967,0.1988,0.1998,0.2016,0.2052,0.2055,0.2078,0.2082,0.2076,0.2126,0.2128,0.2112,0.2095,0.2135,0.2173,0.2184,0.2048,0.2047,0.2046,0.2046,0,0,0.1782,0.1851,0.1855,0.188,0.1928,0.1948,0.1986,0.2029,0.2059,0.2077,0.2116,0.2135,0.2142,0.2149,0.215,0.2174,0.224,0.2165,0.2165,0.2205,0.2329,0.2352,0.2366,0.2238,0.224,0.2241,0.2341,0,0.1792,0.1845,0.1877,0.1921,0.195,0.1985,0.202,0.206,0.2092,0.2133,0.2152,0.2186,0.2168,0.2183,0.2209,0.2234,0.2267,0.2215,0.2282,0.2284,0.2301,0.2379,0.2185,0.2261,0.2352,0.2353,0.2355,0,0.1799,0.1839,0.1884,0.1947,0.1962,0.1988,0.2052,0.2086,0.2152,0.218,0.2222,0.224,0.2293,0.2259,0.2335,0.2306,0.2323,0.2334,0.2338,0.235,0.2328,0.2232,0.2276,0.2372,0.237,0.2369,0.2368,0,0.1771,0.1838,0.1875,0.1896,0.197,0.1994,0.203,0.2097,0.2139,0.2213,0.2254,0.2311,0.235,0.238,0.2418,0.2383,0.2499,0.2452,0.2491,0.2493,0.2336,0.2322,0.2504,0.2503,0.2503,0.2503,0.2503,0,0.1768,0.1794,0.1864,0.1885,0.1925,0.1981,0.203,0.2079,0.2159,0.222,0.2274,0.234,0.2382,0.2451,0.246,0.2533,0.2542,0.2521,0.253,0.2349,0.2335,0.2426,0.2416,0.2507,0.2506,0.2505,0.2505,0,0.1725,0.1776,0.1817,0.1892,0.1911,0.1937,0.2019,0.2062,0.2147,0.2231,0.226,0.2383,0.2488,0.2535,0.2606,0.2603,0.2652,0.2666,0.2463,0.2447,0.2607,0.2597,0.2721,0.2723,0.2725,0.2726,0.2727,0,0.1707,0.1726,0.1799,0.1822,0.1853,0.1902,0.1939,0.2034,0.2088,0.2261,0.23,0.2444,0.2534,0.2673,0.2695,0.2746,0.2734,0.2588,0.2484,0.2638,0.2634,0.2622,0.2611,0.229,0.2288,0.2286,0.2284,0,0.1667,0.1692,0.1728,0.1775,0.1813,0.1858,0.1922,0.1963,0.2092,0.2179,0.2324,0.2418,0.2583,0.2574,0.2661,0.2651,0.2565,0.2551,0.2768,0.228,0.2244,0.2236,0.2236,0.2265,0.2267,0.2269,0.227,0.227,0.1621,0.1633,0.1683,0.1719,0.1762,0.1803,0.1817,0.19,0.1981,0.2087,0.2245,0.2319,0.2407,0.2455,0.2427,0.2407,0.2565,0.2428,0.2428,0.2432,0.2379,0.235,0.2381,0.2383,0.2386,0.2387,0.2389,0,0.1561,0.1591,0.1626,0.1665,0.1681,0.1733,0.1795,0.1801,0.1854,0.198,0.2077,0.2009,0.2046,0.2118,0.2083,0.2133,0.2042,0.2034,0.1874,0.1899,0.1919,0.1832,0.1692,0.1689,0.1687,0.1684,0,0,0.1533,0.1544,0.1568,0.1573,0.1599,0.1594,0.1612,0.1639,0.1706,0.1739,0.1766,0.1927,0.2068,0.1829,0.1845,0.1757,0.1793,0.1694,0.2265,0.2101,0.2116,0.2178,0.2079,0,0,0,0,0]},{"header":{"parameterUnit":"m.s-1","parameterCategory":2,"la1":30.2991,"la2":30.254,"lo1":-89.0895,"lo2":-89.0444,"dy":0.0017,"dx":0.0017,"nx":28,"ny":28,"refTime":"2023-11-12T09:00:00:Z","depth":"2","parameterNumber":3,"parameterNumberName":"V-component_of_CURRENTS"},"data":[0,0,0,0,0,0,0,0,0,0,0,0,0,0,0,0,0,0,0,0,0,0,0,0,0,0,0,0,0,0,0,0,0,0,0,0,0,0,0,0,0,0,0,0,0,0,0,0,0,0,0,0,0,0,0,0,0,0,-0.0364,-0.0365,0,-0.0418,-0.0419,-0.042,-0.0457,-0.0457,-0.0457,-0.0458,-0.0536,-0.0538,-0.054,0,0,0,0,0,0,0,0,0,0,0,0,0,-0.0324,-0.0324,-0.0364,-0.0365,-0.0365,-0.0418,-0.0419,-0.042,-0.0457,-0.0457,-0.0458,-0.0458,-0.0536,-0.0538,-0.054,0,0,0,0,0,0,0,0,0,0,0,0,0,-0.0356,-0.0324,-0.0364,-0.039,-0.0393,-0.0418,-0.0419,-0.042,-0.0457,-0.0457,-0.0458,-0.0458,-0.0535,-0.0538,-0.054,-0.0549,0,0,-0.0549,-0.055,0,0,0,0,0,0,0,0,-0.0354,-0.0357,-0.0386,-0.0388,-0.0392,-0.0431,-0.0434,-0.0464,-0.0457,-0.0432,-0.0458,-0.0458,-0.0503,-0.0509,-0.0517,-0.0553,-0.0556,-0.0549,-0.0551,-0.0552,-0.0553,0,0,0,0,0,0,0,-0.0351,-0.0355,-0.0385,-0.0386,-0.039,-0.041,-0.0415,-0.044,-0.0465,-0.0435,-0.0437,-0.0444,-0.0505,-0.0515,-0.052,-0.0557,-0.0549,-0.0551,-0.0553,-0.0554,-0.0612,-0.0612,0,0,0,0,0,0,-0.0343,-0.0353,-0.0384,-0.0387,-0.0374,-0.041,-0.0416,-0.0418,-0.0465,-0.0472,-0.0443,-0.0445,-0.051,-0.0516,-0.0523,-0.0536,-0.0552,-0.0554,-0.0556,-0.0612,-0.0612,-0.0612,0,0,0,0,0,0,-0.0342,-0.0345,-0.0382,-0.0372,-0.0378,-0.0411,-0.0413,-0.0419,-0.0431,-0.0471,-0.0479,-0.045,-0.051,-0.0519,-0.0546,-0.0539,-0.0556,-0.0558,-0.0613,-0.0612,-0.0612,-0.0562,0,0,0,0,0,0,-0.034,-0.0344,-0.0342,-0.0371,-0.0378,-0.0394,-0.0413,-0.042,-0.0434,-0.0438,-0.0479,-0.0487,-0.0511,-0.0542,-0.0549,-0.0543,-0.056,-0.0613,-0.0612,-0.0612,-0.0564,-0.056,-0.0557,0,0,0,0,0,-0.0338,-0.0333,-0.0342,-0.0346,-0.0375,-0.0394,-0.0399,-0.0424,-0.0434,-0.0437,-0.0466,-0.0485,-0.0545,-0.0544,-0.0552,-0.0547,-0.0613,-0.0613,-0.0612,-0.0566,-0.0561,-0.0557,0,0,0,0,0,0,-0.0313,-0.0337,-0.0347,-0.0349,-0.0369,-0.04,-0.0404,-0.0422,-0.0446,-0.0449,-0.0487,-0.0496,-0.0518,-0.054,-0.0538,-0.0564,-0.0581,-0.0583,-0.0543,-0.0539,-0.0536,-0.0523,-0.0563,0,0,0,0,0,-0.0306,-0.0309,-0.0336,-0.0337,-0.0345,-0.0374,-0.0385,-0.0401,-0.0427,-0.0438,-0.0467,-0.0497,-0.0523,-0.0536,-0.0564,-0.0578,-0.0602,-0.058,-0.0576,-0.0573,-0.0569,-0.0605,-0.0604,-0.0611,-0.0611,-0.0611,0,0,-0.0297,-0.031,-0.0312,-0.0332,-0.0348,-0.0354,-0.0381,-0.0393,-0.0397,-0.0443,-0.0457,-0.0489,-0.0526,-0.0542,-0.0553,-0.0559,-0.0583,-0.0573,-0.057,-0.0568,-0.0604,-0.0604,-0.0603,-0.0611,-0.0611,-0.0611,0,0,-0.0277,-0.029,-0.0286,-0.0299,-0.032,-0.0337,-0.0339,-0.0369,-0.0382,-0.0401,-0.0433,-0.0461,-0.0499,-0.0523,-0.054,-0.0535,-0.0567,-0.0542,-0.0512,-0.0546,-0.0546,-0.0546,-0.0569,-0.0572,-0.0537,-0.0537,-0.0537,0,-0.0264,-0.0264,-0.0288,-0.0286,-0.0292,-0.0327,-0.0322,-0.0339,-0.0374,-0.0383,-0.0399,-0.0457,-0.0489,-0.0511,-0.0509,-0.0527,-0.0548,-0.0523,-0.0541,-0.0542,-0.0543,-0.0567,-0.057,-0.0534,-0.0535,-0.0535,-0.0535,0,-0.0244,-0.0244,-0.0241,-0.025,-0.0259,-0.0261,-0.0285,-0.0297,-0.0317,-0.0339,-0.0368,-0.0413,-0.0448,-0.046,-0.0484,-0.0501,-0.0515,-0.0535,-0.0549,-0.0539,-0.0565,-0.0569,-0.0531,-0.0532,-0.0532,-0.0533,0,0,-0.0212,-0.0224,-0.0223,-0.0217,-0.0239,-0.024,-0.0246,-0.0263,-0.0262,-0.0302,-0.0308,-0.0359,-0.0388,-0.041,-0.0444,-0.047,-0.0494,-0.0498,-0.0501,-0.0516,-0.0562,-0.0557,-0.0561,-0.0518,-0.0518,-0.0519,-0.0575,0,-0.0188,-0.0174,-0.0189,-0.0172,-0.0166,-0.0193,-0.0192,-0.021,-0.0235,-0.025,-0.0301,-0.0323,-0.0367,-0.038,-0.0416,-0.0476,-0.0505,-0.0477,-0.0574,-0.0577,-0.057,-0.0566,-0.0525,-0.0571,-0.058,-0.0581,-0.0581,0,-0.0163,-0.0156,-0.0136,-0.0128,-0.0127,-0.0123,-0.0125,-0.013,-0.0164,-0.0183,-0.0222,-0.0263,-0.0311,-0.0346,-0.0446,-0.0426,-0.0489,-0.0535,-0.0539,-0.0555,-0.058,-0.0585,-0.0579,-0.0589,-0.0588,-0.0588,-0.0587,0,-0.0126,-0.0117,-0.0096,-0.0095,-0.0094,-0.0087,-0.009,-0.0111,-0.0101,-0.0143,-0.0141,-0.0217,-0.024,-0.0335,-0.0432,-0.0443,-0.0533,-0.0567,-0.0622,-0.0622,-0.0617,-0.0615,-0.0637,-0.0637,-0.0637,-0.0637,-0.0637,0,-0.0094,-0.0076,-0.0076,-0.0063,-0.003,-0.0047,-0.0019,-0.0036,-0.0043,-0.0016,-0.0104,-0.0092,-0.0237,-0.0302,-0.041,-0.052,-0.0523,-0.0614,-0.0637,-0.0597,-0.0593,-0.0635,-0.0634,-0.0639,-0.0638,-0.0638,-0.0638,0,-0.0056,-0.0059,-0.0031,-0.0021,-0.0012,0.001,0.0037,0.0059,0.0038,0.0071,0.0066,0.0,-0.0086,-0.0225,-0.0369,-0.0476,-0.0592,-0.0629,-0.0565,-0.0579,-0.0667,-0.0663,-0.0711,-0.0712,-0.0712,-0.0712,-0.0712,0,-0.0035,-0.0018,0.0008,0.0033,0.004,0.0073,0.0102,0.0098,0.0132,0.0144,0.0173,0.0103,0.0081,-0.0136,-0.0336,-0.0527,-0.0564,-0.0624,-0.0647,-0.0658,-0.0675,-0.0671,-0.0666,-0.0621,-0.0621,-0.062,-0.062,0,0.001,0.0016,0.0042,0.0091,0.0127,0.0175,0.0218,0.0262,0.0278,0.0313,0.0359,0.0345,0.0149,-0.0027,-0.0298,-0.0428,-0.0596,-0.0621,-0.0651,-0.0604,-0.0576,-0.0592,-0.059,-0.0616,-0.0616,-0.0617,-0.0617,-0.0617,0.005,0.0076,0.011,0.016,0.0206,0.0275,0.0327,0.0398,0.0477,0.0553,0.0519,0.0512,0.0287,-0.0036,-0.0278,-0.0546,-0.0551,-0.0646,-0.0646,-0.0647,-0.0621,-0.0595,-0.0633,-0.0634,-0.0634,-0.0635,-0.0635,0,0.0112,0.0131,0.0178,0.024,0.0309,0.0313,0.0409,0.0481,0.0602,0.0662,0.0709,0.0536,0.0321,0.0051,-0.0335,-0.057,-0.0592,-0.0643,-0.062,-0.0621,-0.0624,-0.0596,-0.0602,-0.0603,-0.0604,-0.0604,0,0,0.0145,0.0204,0.0223,0.033,0.037,0.0469,0.0529,0.0638,0.0706,0.0798,0.08,0.0753,0.0414,0.0151,-0.0168,-0.0392,-0.0457,-0.0433,-0.0433,-0.037,-0.037,-0.0596,-0.0552,0,0,0,0,0]}],[{"header":{"parameterUnit":"m.s-1","parameterCategory":2,"la1":30.2991,"la2":30.254,"lo1":-89.0895,"lo2":-89.0444,"dy":0.0017,"dx":0.0017,"nx":28,"ny":28,"refTime":"2023-11-12T09:00:00:Z","depth":"4","parameterNumber":2,"parameterNumberName":"U-component_of_CURRENTS"},"data":[0,0,0,0,0,0,0,0,0,0,0,0,0,0,0,0,0,0,0,0,0,0,0,0,0,0,0,0,0,0,0,0,0,0,0,0,0,0,0,0,0,0,0,0,0,0,0,0,0,0,0,0,0,0,0,0,0,0,0.1271,0.1272,0,0.1324,0.1325,0.1325,0.1375,0.1376,0.1377,0.1378,0.1446,0.1447,0.1448,0,0,0,0,0,0,0,0,0,0,0,0,0,0.1198,0.1199,0.1271,0.1272,0.1272,0.1324,0.1325,0.1325,0.1375,0.1376,0.1377,0.1378,0.1445,0.1447,0.1448,0,0,0,0,0,0,0,0,0,0,0,0,0,0.1237,0.12,0.1271,0.1305,0.1308,0.1324,0.1325,0.1326,0.1375,0.1376,0.1377,0.1378,0.1445,0.1446,0.1448,0.1435,0,0,0.1453,0.1454,0,0,0,0,0,0,0,0,0.1235,0.1239,0.1299,0.1302,0.1307,0.1346,0.1324,0.1364,0.1375,0.1348,0.1378,0.1379,0.1414,0.1418,0.1423,0.1438,0.1441,0.1453,0.1454,0.1455,0.1455,0,0,0,0,0,0,0,0.1232,0.1237,0.129,0.13,0.1304,0.1313,0.132,0.1332,0.1373,0.135,0.1355,0.1363,0.1416,0.1421,0.1425,0.1442,0.1453,0.1455,0.1456,0.1456,0.1543,0.1545,0,0,0,0,0,0,0.1228,0.1235,0.1289,0.1292,0.1275,0.1313,0.1321,0.1331,0.1372,0.138,0.1362,0.1365,0.1418,0.1423,0.1428,0.1501,0.1455,0.1457,0.1457,0.1542,0.1544,0.1545,0,0,0,0,0,0,0.1226,0.1232,0.1287,0.1266,0.1274,0.1314,0.1324,0.1331,0.1366,0.1381,0.1389,0.1393,0.1419,0.1425,0.1467,0.1501,0.1457,0.1459,0.1541,0.1543,0.1544,0.1593,0,0,0,0,0,0,0.1224,0.1231,0.1249,0.1266,0.1275,0.1315,0.1323,0.1331,0.1368,0.1374,0.141,0.1416,0.142,0.1464,0.1468,0.1503,0.146,0.1539,0.1541,0.1544,0.159,0.1596,0.1602,0,0,0,0,0,0.1221,0.1237,0.125,0.1257,0.1294,0.1316,0.1322,0.1352,0.1369,0.1388,0.1416,0.1416,0.1483,0.1467,0.1471,0.1507,0.1538,0.1541,0.1544,0.1587,0.1595,0.1602,0,0,0,0,0,0,0.1216,0.1244,0.1258,0.1283,0.1308,0.1326,0.135,0.1366,0.1402,0.1417,0.1429,0.1437,0.1487,0.1488,0.1469,0.1539,0.1512,0.1516,0.1543,0.1551,0.1557,0.1554,0.1461,0,0,0,0,0,0.1221,0.1244,0.1267,0.1291,0.1305,0.1332,0.135,0.1371,0.1398,0.1416,0.1441,0.147,0.1496,0.1518,0.1537,0.1572,0.1575,0.1599,0.1605,0.161,0.1611,0.1642,0.1651,0.1555,0.1555,0.1555,0,0,0.1225,0.1246,0.1259,0.1293,0.1316,0.1338,0.1347,0.1383,0.141,0.1416,0.147,0.1492,0.151,0.1553,0.1576,0.1564,0.1642,0.1614,0.1618,0.1617,0.1647,0.1656,0.1664,0.1557,0.1557,0.1556,0,0,0.1236,0.1265,0.1285,0.1307,0.1347,0.1363,0.1379,0.1414,0.1443,0.1486,0.1503,0.1543,0.1584,0.1604,0.1618,0.1667,0.1671,0.1683,0.1717,0.1747,0.1755,0.1762,0.1786,0.1794,0.1689,0.1689,0.1689,0,0.1243,0.1269,0.1294,0.1317,0.1341,0.1376,0.14,0.143,0.1477,0.1503,0.1514,0.1587,0.1605,0.1654,0.1679,0.1682,0.17,0.1687,0.1755,0.1762,0.1768,0.1791,0.18,0.1692,0.1692,0.1691,0.1691,0,0.1257,0.1289,0.1305,0.1346,0.1373,0.1404,0.1441,0.1482,0.1522,0.1549,0.1616,0.1643,0.1688,0.1705,0.171,0.1771,0.177,0.1757,0.1734,0.1781,0.1802,0.181,0.1696,0.1695,0.1694,0.1693,0,0,0.1242,0.1303,0.1312,0.1337,0.1394,0.1414,0.1468,0.1519,0.1561,0.1615,0.1667,0.1721,0.1747,0.1764,0.1783,0.1813,0.1878,0.1814,0.1815,0.1834,0.1953,0.186,0.186,0.1886,0.1888,0.1889,0.1952,0,0.1249,0.1292,0.1324,0.1374,0.1398,0.145,0.1494,0.1548,0.16,0.166,0.1705,0.1763,0.1767,0.1804,0.1837,0.1869,0.1902,0.1862,0.1907,0.1909,0.1818,0.1867,0.1894,0.1958,0.196,0.1961,0.1962,0,0.1247,0.128,0.1325,0.1391,0.1408,0.1448,0.1528,0.1573,0.1658,0.1703,0.1768,0.1805,0.1875,0.1865,0.1943,0.1924,0.1947,0.1962,0.1965,0.1864,0.1831,0.19,0.1977,0.1976,0.1975,0.1974,0.1973,0,0.1212,0.1279,0.1317,0.134,0.1417,0.146,0.1511,0.1592,0.1639,0.174,0.1787,0.1863,0.1919,0.1957,0.2005,0.1986,0.2081,0.2049,0.1984,0.1978,0.202,0.2012,0.2099,0.2099,0.2099,0.2099,0.2099,0,0.1193,0.1227,0.1311,0.1332,0.1388,0.1451,0.1522,0.1584,0.1675,0.1731,0.1814,0.1866,0.195,0.2011,0.2031,0.2041,0.2105,0.1997,0.199,0.204,0.2033,0.2026,0.2017,0.2101,0.2101,0.21,0.21,0,0.1143,0.1198,0.1247,0.1339,0.1372,0.1415,0.1524,0.1569,0.1668,0.1745,0.1784,0.1897,0.1977,0.2042,0.2115,0.2069,0.2086,0.2074,0.2139,0.2134,0.1953,0.1946,0.1988,0.1986,0.1983,0.1981,0.198,0,0.1118,0.1139,0.1239,0.1273,0.1322,0.1398,0.1448,0.1556,0.16,0.1747,0.1771,0.1895,0.196,0.1981,0.2061,0.2094,0.2075,0.2063,0.1986,0.1954,0.1944,0.194,0.1936,0.1976,0.1975,0.1975,0.1974,0,0.107,0.1118,0.1159,0.1228,0.1289,0.1342,0.1423,0.1444,0.1565,0.1666,0.172,0.1771,0.1863,0.1919,0.1972,0.1988,0.2053,0.2038,0.2042,0.1969,0.194,0.1931,0.193,0.1966,0.1967,0.1968,0.1969,0,0.104,0.1057,0.1122,0.1172,0.1241,0.1271,0.132,0.1374,0.143,0.1577,0.1597,0.173,0.1841,0.1867,0.1913,0.1929,0.1892,0.1816,0.183,0.184,0.1765,0.1704,0.1659,0,0,0,0,0,0.1002,0.1018,0.1062,0.1111,0.1173,0.1216,0.1296,0.1344,0.1454,0.1452,0.1517,0.1593,0.1668,0.1739,0.1728,0.1864,0.1908,0.1843,0.1829,0.1922,0.1931,0.1858,0,0,0,0,0,0,0.0979,0.102,0.1037,0.105,0.1073,0.1131,0.118,0.1253,0.1251,0.1367,0.1413,0.1506,0.1602,0.1665,0.1701,0.1725,0.1685,0.1928,0.1924,0.1917,0.1925,0.1933,0.1861,0,0,0,0,0]},{"header":{"parameterUnit":"m.s-1","parameterCategory":2,"la1":30.2991,"la2":30.254,"lo1":-89.0895,"lo2":-89.0444,"dy":0.0017,"dx":0.0017,"nx":28,"ny":28,"refTime":"2023-11-12T09:00:00:Z","depth":"4","parameterNumber":3,"parameterNumberName":"V-component_of_CURRENTS"},"data":[0,0,0,0,0,0,0,0,0,0,0,0,0,0,0,0,0,0,0,0,0,0,0,0,0,0,0,0,0,0,0,0,0,0,0,0,0,0,0,0,0,0,0,0,0,0,0,0,0,0,0,0,0,0,0,0,0,0,0.0004,0.0003,0,-0.0037,-0.0038,-0.0038,-0.0072,-0.0073,-0.0073,-0.0073,-0.0144,-0.0145,-0.0147,0,0,0,0,0,0,0,0,0,0,0,0,0,0.0033,0.0032,0.0004,0.0003,0.0003,-0.0037,-0.0038,-0.0039,-0.0072,-0.0073,-0.0073,-0.0074,-0.0143,-0.0145,-0.0147,0,0,0,0,0,0,0,0,0,0,0,0,0,0.0009,0.0032,0.0004,-0.0019,-0.0021,-0.0037,-0.0038,-0.0039,-0.0072,-0.0073,-0.0073,-0.0074,-0.0143,-0.0145,-0.0147,-0.0151,0,0,-0.0154,-0.0155,0,0,0,0,0,0,0,0,0.001,0.0008,-0.0015,-0.0017,-0.002,-0.005,-0.0054,-0.0078,-0.0072,-0.0053,-0.0073,-0.0074,-0.0115,-0.0119,-0.0126,-0.0154,-0.0157,-0.0154,-0.0156,-0.0157,-0.0157,0,0,0,0,0,0,0,0.0012,0.0009,-0.0013,-0.0015,-0.0018,-0.0034,-0.0038,-0.0058,-0.0081,-0.0055,-0.0057,-0.0061,-0.0116,-0.0123,-0.0128,-0.0158,-0.0154,-0.0156,-0.0158,-0.0159,-0.0213,-0.0213,0,0,0,0,0,0,0.0019,0.0011,-0.0011,-0.0014,-0.0006,-0.0034,-0.0038,-0.004,-0.008,-0.0087,-0.0061,-0.0063,-0.0119,-0.0125,-0.013,-0.0145,-0.0157,-0.0159,-0.016,-0.0213,-0.0213,-0.0213,0,0,0,0,0,0,0.002,0.0017,-0.001,-0.0003,-0.0007,-0.0034,-0.0036,-0.0041,-0.0052,-0.0085,-0.0092,-0.0068,-0.012,-0.0127,-0.0151,-0.0147,-0.016,-0.0162,-0.0213,-0.0213,-0.0213,-0.0169,0,0,0,0,0,0,0.0021,0.0018,0.0019,-0.0002,-0.0007,-0.0018,-0.0035,-0.0041,-0.0054,-0.0057,-0.0093,-0.01,-0.0121,-0.0148,-0.0153,-0.0151,-0.0164,-0.0213,-0.0213,-0.0213,-0.017,-0.0167,-0.0165,0,0,0,0,0,0.0022,0.0028,0.002,0.0017,-0.0004,-0.0018,-0.0022,-0.0043,-0.0054,-0.0056,-0.0082,-0.0099,-0.0152,-0.0149,-0.0156,-0.0154,-0.0213,-0.0213,-0.0213,-0.0171,-0.0168,-0.0165,0,0,0,0,0,0,0.0043,0.0025,0.0015,0.0016,0.0,-0.0023,-0.0026,-0.0042,-0.0063,-0.0067,-0.01,-0.0108,-0.013,-0.0148,-0.0144,-0.0171,-0.0185,-0.0187,-0.0151,-0.0149,-0.0146,-0.0128,-0.0166,0,0,0,0,0,0.0049,0.0048,0.0027,0.0028,0.0022,-0.0002,-0.0011,-0.0025,-0.0047,-0.0057,-0.0083,-0.0111,-0.0134,-0.0146,-0.0171,-0.0183,-0.0203,-0.0187,-0.0184,-0.0182,-0.0173,-0.0202,-0.02,-0.0213,-0.0213,-0.0213,0,0,0.0057,0.0048,0.0047,0.0032,0.0019,0.0018,-0.0009,-0.0018,-0.0019,-0.0061,-0.0073,-0.0105,-0.0137,-0.0153,-0.0163,-0.0168,-0.019,-0.0182,-0.0179,-0.0172,-0.0201,-0.02,-0.0199,-0.0213,-0.0213,-0.0213,0,0,0.0078,0.0066,0.0073,0.0063,0.0047,0.0033,0.0031,0.0005,-0.0007,-0.0024,-0.0054,-0.0082,-0.0117,-0.0137,-0.0152,-0.0149,-0.0178,-0.016,-0.0128,-0.0156,-0.0155,-0.0154,-0.0179,-0.0181,-0.0155,-0.0155,-0.0155,0,0.009,0.0096,0.0073,0.0078,0.0077,0.0042,0.0052,0.0036,0.0005,-0.0,-0.0023,-0.0075,-0.0107,-0.012,-0.0123,-0.0142,-0.0162,-0.0136,-0.0152,-0.0151,-0.0151,-0.0177,-0.018,-0.0152,-0.0153,-0.0153,-0.0153,0,0.0115,0.012,0.0124,0.0121,0.0116,0.0117,0.0095,0.0085,0.0062,0.0043,0.0018,-0.0029,-0.0058,-0.0076,-0.01,-0.0113,-0.013,-0.0147,-0.0156,-0.0147,-0.0176,-0.0179,-0.0149,-0.015,-0.0151,-0.0151,0,0,0.0144,0.0143,0.0145,0.0155,0.0139,0.0141,0.014,0.0131,0.0135,0.0092,0.0092,0.0039,0.0009,-0.001,-0.0048,-0.0074,-0.01,-0.0107,-0.0109,-0.0124,-0.016,-0.017,-0.0176,-0.0121,-0.0121,-0.0121,-0.018,0,0.0172,0.0197,0.0187,0.0211,0.0223,0.0199,0.0205,0.0191,0.0169,0.0157,0.0106,0.0084,0.0036,0.002,-0.0014,-0.0077,-0.0107,-0.0082,-0.0172,-0.0175,-0.0179,-0.0179,-0.0122,-0.0183,-0.0184,-0.0185,-0.0185,0,0.0201,0.0215,0.0245,0.0263,0.0267,0.0274,0.0281,0.028,0.0254,0.0234,0.0202,0.0159,0.0114,0.0068,-0.0027,-0.0009,-0.0079,-0.0132,-0.0136,-0.016,-0.0191,-0.0195,-0.0192,-0.0191,-0.0191,-0.019,-0.019,0,0.0236,0.0258,0.0286,0.0291,0.0301,0.0313,0.0315,0.0303,0.031,0.028,0.0278,0.0216,0.0181,0.0095,-0.0019,-0.0024,-0.0126,-0.0147,-0.0221,-0.0223,-0.0215,-0.0215,-0.0215,-0.0215,-0.0215,-0.0215,-0.0215,0,0.0268,0.0294,0.0305,0.0321,0.0358,0.035,0.0381,0.0372,0.0367,0.0379,0.0318,0.0308,0.0184,0.011,0.0005,-0.0116,-0.0111,-0.0213,-0.0238,-0.0196,-0.0194,-0.0218,-0.0217,-0.0217,-0.0217,-0.0216,-0.0216,0,0.0298,0.0307,0.0343,0.0364,0.0374,0.0397,0.0424,0.0444,0.0432,0.0445,0.0437,0.0372,0.027,0.0148,0.0002,-0.0083,-0.0198,-0.0246,-0.0186,-0.0208,-0.0282,-0.0279,-0.0325,-0.0326,-0.0327,-0.0327,-0.0328,0,0.0314,0.0334,0.0373,0.0395,0.0405,0.0438,0.0463,0.047,0.049,0.0482,0.0488,0.0406,0.0343,0.0145,0.0004,-0.0186,-0.0222,-0.0279,-0.0287,-0.0273,-0.0293,-0.0288,-0.0284,-0.0329,-0.0329,-0.0329,-0.0329,0,0.034,0.0353,0.038,0.0425,0.0458,0.05,0.0532,0.0554,0.056,0.0561,0.0527,0.0425,0.0309,0.0147,-0.0004,-0.0143,-0.0236,-0.0287,-0.0287,-0.0295,-0.0278,-0.0296,-0.0291,-0.0332,-0.0331,-0.0331,-0.0331,0,0.0355,0.0376,0.0407,0.0445,0.0493,0.0535,0.0557,0.0574,0.0591,0.0581,0.0567,0.0445,0.0372,0.0168,0.0032,-0.0105,-0.0147,-0.0193,-0.0198,-0.0197,-0.0149,-0.0109,-0.0127,0,0,0,0,0,0.0362,0.0383,0.0423,0.0464,0.0513,0.0539,0.059,0.0607,0.0622,0.0605,0.0586,0.0478,0.0276,0.0192,0.0052,0.0005,-0.0177,-0.0164,-0.0235,-0.0345,-0.0342,-0.0309,0,0,0,0,0,0,0.0366,0.0403,0.042,0.047,0.05,0.0555,0.0589,0.0604,0.0592,0.0589,0.0487,0.0437,0.0242,0.0354,0.0047,0.0006,-0.0059,-0.0257,-0.026,-0.0347,-0.0344,-0.0342,-0.0306,0,0,0,0,0]}]]